Content
SEND FEEDBACK

Daily
Averages
Monthly
Summary
United States of America

CARL JUNCTION, MISSOURI


Home > North America > United States > Missouri
Elevation: 950 feet     Latitude: 37 14N     Longitude: 094 35W

WEATHER
 
SELECT A DAY
Number of Records: 198,691;   Date Range: 1/1/95 - 7/20/14
 
SHARE

PRINT THIS DATA

[ ← Previous Day ]
WEATHER ALMANAC - JANUARY 6, 2013
[ Next Day → ]
[ °C ]   °F
Weather ElementAverageHighLow
Temperature31.3 °F41 °F (2:53 pm)24.1 °F (7:53 am)
Dewpoint21.5 °F25 °F (1:53 am)19 °F (10:53 pm)
Humidity68.7 %88 % (1:53 am)43 % (4:53 pm)
Barometer30.36 in30.41 in (9:53 am)30.26 in (1:53 am)
Wind Speed5 mph9.2 mph (9:53 am)
Weather ElementAverage
Visibility9.8 mi
Wind DirectionSSW (190 °)

Weather ElementTotal
Precipitation---
Heating Degree Days32.5 (Base 65)
Averaged from 22 records on January 6, 2013
WEATHER CONDITIONS BREAKOUT
WIND DIRECTION BREAKOUT
WEATHER BY HOUR - JANUARY 6, 2013
[ °C ]   °F
Local TimeTemperatureDewpointHumidityBarometerVisibilityWind DirectionWind SpeedGust SpeedPrecipitationEventsConditions
1:53 AM28.0 °F25.0 °F88 %30.26 in10.0 miWSW (240°)4.6 mphClear
2:53 AM27.0 °F23.0 °F85 %30.28 in10.0 miWest (260°)5.8 mphClear
3:53 AM28.4 °F23.0 °F80 %30.26 in10.0 miWest (280°)8.1 mphClear
4:53 AM26.1 °F21.9 °F84 %30.30 in10.0 miWest (280°)4.6 mphClear
5:53 AM26.6 °F21.2 °F80 %30.29 in10.0 miWest (280°)6.9 mphClear
6:53 AM25.0 °F19.9 °F81 %30.35 in10.0 miNW (310°)8.1 mphClear
7:53 AM24.1 °F19.9 °F84 %30.37 in10.0 miWNW (300°)5.8 mphClear
8:53 AM28.9 °F21.9 °F75 %30.39 in10.0 miNW (320°)5.8 mphClear
9:53 AM30.9 °F23.0 °F72 %30.41 in10.0 miNNW (340°)9.2 mphClear
10:53 AM34.0 °F23.0 °F64 %30.41 in10.0 miNNW (330°)5.8 mphClear
11:53 AM36.0 °F23.0 °F59 %30.40 in10.0 miVariable5.8 mphClear
12:53 PM37.9 °F23.0 °F55 %30.38 in10.0 miNNW (330°)8.1 mphClear
1:53 PM39.9 °F21.9 °F49 %30.37 in10.0 miNW (320°)6.9 mphClear
2:53 PM41.0 °F21.9 °F47 %30.36 in10.0 miVariable5.8 mphClear
3:53 PM41.0 °F21.0 °F45 %30.37 in10.0 miVariable4.6 mphClear
4:53 PM41.0 °F19.9 °F43 %30.37 in10.0 miCalmClear
5:53 PM33.1 °F19.9 °F59 %30.37 in10.0 miCalmClear
6:53 PM32.0 °F21.0 °F64 %30.38 in10.0 miCalmClear
7:53 PM28.0 °F19.9 °F72 %30.39 in7.0 miESE (120°)3.5 mphClear
9:53 PM27.0 °F19.9 °F75 %30.38 in9.0 miSouth (170°)3.5 mphClear
10:53 PM25.0 °F19.0 °F78 %30.37 in10.0 miSE (140°)3.5 mphClear
11:53 PM28.0 °F19.9 °F72 %30.38 in10.0 miSSE (160°)3.5 mphClear
Hourly data recorded from KJLN, located miles away from Carl Junction, Missouri







STORIES FROM OUR PARTNERS